Theta_e
313 313 313 313 312 312 310 311 311 311 310 309 311 311 310 311 304 297 293 301 303 308 302 293 292 292 292 294 300 300 291 286 287 290 292 298 295 300 302 299 300 300 298 301 305
313 313 312 312 311 310 310 310 310 310 310 309 311 309 310 311 300 289 304 307 307 306 291 290 287 288 284 285 290 293 288 288 294 292 285 285 285 294 294 294 297 299 301 302 303
312 311 311 311 310 309 309 309 309 309 311 309 310 310 310 309 292 287 306 306 306 300 292 292 290 287 283 284 285 282 286 283 285 286 285 284 284 286 286 287 294 294 296 298 300
311 311 310 310 308 308 309 309 309 308 310 309 308 308 308 303 279 289 305 304 303 294 291 289 286 281 279 278 283 277 282 283 283 284 283 282 285 283 285 285 289 294 296 297 297
310 310 309 308 307 307 308 308 307 306 307 307 307 306 301 284 283 292 302 298 293 292 288 286 282 280 277 279 280 278 280 282 282 282 282 284 282 282 282 287 290 290 292 293 296
310 309 308 307 306 306 306 309 306 306 308 309 308 302 288 278 290 292 291 291 290 289 287 286 283 283 279 279 277 280 281 280 282 282 282 280 280 281 282 284 285 286 288 292 296
309 308 308 307 305 305 306 306 307 307 308 308 307 294 286 283 290 291 291 289 290 289 286 288 287 283 281 278 282 281 276 279 280 280 279 281 276 276 281 283 282 284 285 288 291
308 307 306 306 305 305 305 304 303 304 303 304 305 290 281 293 291 291 289 289 290 290 289 289 288 284 281 282 280 276 275 269 276 278 279 278 270 278 281 279 280 282 283 284 286
307 306 305 305 305 304 304 303 304 305 303 303 289 285 279 294 288 290 289 287 288 289 289 291 287 281 281 273 269 271 264 269 272 278 277 276 272 278 281 280 279 280 281 283 284
307 306 304 304 303 304 305 301 302 300 296 295 290 281 284 283 288 290 290 289 286 286 285 283 279 275 272 270 261 267 267 270 270 275 276 274 274 278 280 280 279 279 280 281 283
306 305 304 303 302 303 297 290 287 283 285 281 282 281 284 288 291 287 289 286 285 281 274 278 273 268 271 272 273 271 269 268 272 276 274 274 274 277 279 279 278 279 278 280 282
305 305 303 303 302 301 293 287 287 288 278 286 285 285 287 287 283 285 288 280 278 274 276 274 269 275 279 277 275 273 270 269 273 276 275 274 273 277 279 279 280 279 280 281 282
305 304 302 302 301 292 289 289 294 292 280 283 285 284 284 286 282 282 284 281 275 273 273 270 274 279 277 274 273 272 270 269 270 274 275 273 269 272 277 279 280 280 281 281 282
304 302 302 302 292 288 286 292 294 292 275 278 281 283 286 285 280 287 287 281 277 272 274 272 277 276 274 273 274 268 275 274 272 269 264 273 260 270 273 275 277 277 278 278 280
303 301 301 300 288 285 289 293 292 287 269 279 280 288 286 280 281 282 286 281 273 273 272 271 273 273 273 274 276 272 276 273 272 268 261 268 266 266 272 271 273 275 276 278 279
302 301 300 292 289 289 291 292 287 276 265 275 281 279 278 280 280 282 281 282 280 275 274 273 278 276 274 277 277 277 273 272 270 265 254 268 265 265 267 270 272 274 276 277 278
302 301 297 292 285 290 290 286 277 270 278 275 274 277 276 274 276 277 275 270 268 263 266 271 272 276 278 273 276 273 268 260 255 257 256 268 265 263 271 273 273 274 275 276 278
301 299 295 293 290 289 286 278 270 274 272 278 276 275 272 274 274 274 272 267 272 266 265 262 263 272 276 270 265 271 268 262 256 258 261 268 265 267 273 275 275 275 275 276 277
300 290 289 289 292 288 280 270 269 272 276 274 274 271 271 274 272 271 269 265 267 266 264 263 266 274 276 277 271 270 265 271 263 263 261 265 266 269 273 272 273 273 274 275 277
288 285 286 291 291 286 277 274 273 277 278 276 269 271 265 269 268 267 267 266 269 271 270 268 264 273 275 277 276 271 272 262 260 257 256 263 259 263 267 268 271 271 272 274 279
288 282 288 291 288 280 271 271 276 280 279 274 271 268 264 266 269 266 264 271 273 274 273 264 262 268 272 268 266 268 265 265 265 265 259 258 261 271 269 270 269 271 273 276 278
286 280 288 289 278 276 271 275 280 277 279 277 275 270 267 270 265 268 269 270 277 274 265 268 263 262 267 271 274 271 265 266 263 261 264 262 260 274 271 271 271 271 274 277 279
283 281 289 286 272 271 275 276 277 276 275 275 274 275 273 270 264 270 271 277 277 275 266 270 262 260 259 267 273 269 269 268 268 268 262 258 261 272 271 270 271 272 274 276 279
284 280 281 280 279 271 270 273 274 278 277 277 275 275 272 270 272 268 271 275 276 275 281 276 264 261 260 264 270 267 268 268 266 262 261 262 262 266 268 268 270 272 274 276 278
284 276 278 271 275 274 273 271 273 273 276 276 273 273 267 263 269 269 272 273 275 278 275 269 261 267 269 270 269 267 266 267 265 265 261 263 263 266 267 269 270 273 274 275 276
281 278 276 273 276 274 275 272 273 273 271 272 272 273 272 265 268 266 271 270 270 273 271 272 264 268 264 270 266 268 266 266 267 266 265 265 264 269 270 271 272 273 273 274 275
286 285 278 276 274 271 271 273 272 274 275 276 274 271 271 273 275 275 275 274 273 271 270 267 266 264 262 269 268 265 261 264 266 267 265 261 265 269 268 270 271 273 273 274 275
Wind_Speed
18 18 18 18 17 17 19 18 16 13 11 8 8 4 3 8 14 18 18 15 17 20 19 13 9 13 10 2 5 1 8 9 6 4 5 12 17 16 11 5 10 10 9 15 27
19 18 18 18 18 19 19 17 16 13 11 8 7 4 3 5 1 20 18 20 21 21 14 11 14 12 4 4 5 5 9 4 3 11 14 17 19 15 15 21 11 21 27 28 25
19 18 19 19 18 20 20 16 14 12 10 6 7 4 5 4 3 7 20 22 22 20 9 8 9 6 3 5 5 8 9 14 10 17 20 20 18 17 18 16 15 19 26 27 25
18 18 19 19 18 20 18 15 12 8 10 8 7 6 6 2 4 5 20 21 21 17 10 7 7 5 3 5 6 7 6 7 10 13 14 18 17 20 15 17 20 19 20 18 21
18 18 19 19 17 20 16 14 12 12 12 13 12 3 3 7 3 8 19 14 9 8 12 6 5 6 6 6 10 4 7 12 16 14 13 16 15 17 21 14 17 19 20 19 17
17 17 18 19 17 19 14 11 7 9 12 13 14 11 6 9 6 8 9 12 11 7 7 6 5 6 3 6 3 5 9 17 15 17 11 13 13 11 13 17 21 22 19 16 13
17 17 18 19 16 19 13 9 10 7 8 10 10 4 11 6 5 8 9 9 7 5 4 4 5 4 5 6 6 10 15 15 5 13 19 18 11 11 14 15 19 19 20 19 16
17 17 18 18 15 19 13 8 7 8 7 9 8 5 4 1 6 9 10 19 16 7 3 8 6 4 3 5 6 5 4 8 11 15 10 13 18 17 10 9 17 20 25 20 21
17 17 18 18 14 18 12 8 8 17 9 9 6 6 3 6 11 9 10 15 10 11 7 6 2 2 5 4 5 4 6 17 15 11 17 12 24 21 14 11 12 16 18 23 22
17 17 18 18 13 18 14 3 6 9 3 4 4 6 6 8 7 5 11 15 11 9 7 7 4 2 5 7 4 14 15 11 19 20 15 18 23 23 17 14 14 13 17 21 23
17 16 18 17 12 18 8 4 6 8 10 6 0 4 3 8 5 7 10 9 7 7 9 5 3 3 4 4 7 9 12 16 21 19 19 18 24 25 21 17 16 14 11 17 22
17 15 17 16 10 13 7 6 2 3 5 1 3 2 3 4 4 8 6 7 6 6 8 6 2 5 13 8 8 9 15 21 21 11 21 24 28 24 19 20 18 18 15 15 18
16 16 17 14 8 6 10 5 1 2 4 2 1 1 8 1 3 8 8 6 3 4 6 3 7 12 13 8 8 12 16 14 22 33 20 19 14 6 3 8 13 17 12 12 17
15 17 17 16 5 3 4 6 3 1 4 7 5 4 8 4 3 6 8 5 8 6 7 4 7 18 12 8 8 16 10 22 29 19 9 6 7 5 10 11 15 17 15 16 18
14 15 16 12 1 4 5 6 3 4 6 5 3 2 10 7 6 10 6 7 4 12 5 7 12 11 3 6 9 17 17 29 26 17 4 4 4 5 7 14 21 21 21 20 19
12 11 13 5 3 2 3 5 4 6 4 5 4 9 9 6 6 7 7 7 2 5 5 9 10 2 2 10 13 16 16 26 8 3 5 4 2 3 8 15 19 22 20 22 23
12 10 7 2 3 3 2 2 5 9 6 9 7 9 10 7 6 9 6 11 10 11 18 12 9 6 4 10 3 10 15 10 10 7 5 4 11 2 7 15 16 21 26 25 23
10 8 5 2 2 2 3 5 12 2 4 6 6 15 5 10 6 10 7 5 6 4 6 6 12 4 13 1 3 6 4 1 8 8 16 20 3 5 12 14 16 22 24 23 23
9 2 2 4 3 3 5 10 2 2 4 7 10 5 6 7 4 9 5 0 3 1 4 6 7 12 18 11 3 5 7 8 7 9 7 5 6 4 24 32 32 31 29 27 25
2 2 3 6 2 4 8 5 2 1 4 3 4 6 5 7 7 7 4 5 3 2 3 5 11 6 7 3 3 3 5 7 4 6 10 7 7 7 28 32 28 31 30 29 25
3 3 4 6 5 7 6 3 1 3 3 2 3 4 2 5 5 4 5 5 2 5 2 3 3 10 8 4 3 4 4 3 4 4 5 8 7 9 24 22 29 30 28 26 23
2 3 5 4 7 4 3 2 2 3 2 2 2 5 4 4 5 4 4 5 7 4 6 5 3 5 18 1 10 9 3 3 3 4 4 4 8 14 23 23 25 26 24 25 23
3 2 4 6 5 2 1 1 2 0 2 4 4 4 2 3 5 5 5 7 14 11 3 3 3 7 11 5 3 4 7 6 7 5 2 6 11 21 21 25 25 25 25 24 22
3 3 5 6 2 6 3 3 3 2 2 1 3 3 3 6 4 8 9 6 14 9 11 8 1 6 7 15 16 6 9 13 5 3 9 7 27 30 30 32 32 30 29 25 20
4 0 3 2 4 4 4 2 3 4 4 3 3 2 2 3 9 4 6 10 8 6 9 4 2 5 16 19 5 4 6 18 12 4 4 16 21 22 28 29 26 21 25 23 27
3 4 4 2 1 3 1 1 2 3 2 4 2 6 4 4 7 9 10 4 6 6 7 2 4 13 12 8 8 5 12 18 14 4 5 16 21 24 26 24 22 22 29 28 28
1 2 5 2 1 4 2 2 2 1 4 1 4 6 6 7 9 16 13 8 10 5 4 2 4 6 7 13 11 2 4 17 14 5 5 18 25 24 29 29 27 25 26 24 24
Wind_Direction
15 13 14 11 8 4 0 357 4 4 7 5 357 334 281 7 43 41 37 359 355 353 345 323 347 348 339 284 221 10 248 260 279 295 295 334 332 322 329 6 324 331 6 344 340
15 15 13 9 5 4 1 2 3 5 1 5 4 353 344 356 126 41 7 359 356 1 343 347 352 341 326 306 302 180 237 278 318 344 350 343 339 345 340 328 326 336 336 337 345
15 13 10 7 7 3 360 358 354 355 350 2 16 29 353 353 61 3 0 358 0 359 333 345 332 327 328 356 321 333 274 333 319 337 344 327 322 328 324 313 326 320 321 321 324
13 10 9 7 7 3 1 2 7 11 25 33 38 35 10 5 65 325 358 356 359 350 348 343 353 15 304 351 357 324 313 347 323 332 337 325 321 315 305 305 305 304 298 304 316
12 8 7 4 3 3 7 11 45 64 60 47 25 335 18 50 32 303 356 350 347 351 343 345 22 2 1 316 345 291 332 322 317 313 306 304 304 295 292 307 319 323 312 300 296
11 6 4 2 3 4 3 16 20 32 18 4 16 37 58 65 287 348 342 354 339 335 330 6 344 310 273 312 318 278 304 306 313 312 311 334 318 338 328 331 323 316 315 319 328
8 5 0 359 1 0 358 15 14 9 356 342 353 89 69 48 347 337 359 342 314 311 314 303 302 26 326 311 262 286 296 282 287 342 321 339 305 296 304 312 310 309 312 311 309
7 3 358 355 357 355 353 347 345 331 334 339 334 63 93 109 10 354 352 343 334 294 242 257 251 254 184 283 307 299 334 349 315 302 308 325 291 292 287 298 299 300 299 301 301
5 2 357 355 354 346 350 318 312 341 267 315 12 104 20 355 354 328 6 339 319 323 333 356 303 219 7 14 0 352 299 305 311 304 298 298 290 295 295 279 282 288 288 291 292
2 0 358 356 346 344 348 303 323 332 313 328 33 51 24 342 317 326 344 346 357 353 358 358 30 53 21 43 305 298 313 285 293 306 307 298 285 290 291 282 272 267 274 281 284
359 356 360 357 334 354 7 30 21 356 29 85 191 119 297 303 307 354 354 350 353 34 17 315 45 46 321 267 253 279 290 285 290 301 297 293 290 289 289 281 272 255 251 270 276
356 353 358 347 328 23 32 70 86 184 84 93 11 99 281 277 331 352 3 25 18 345 6 357 121 3 341 322 312 309 307 295 290 289 300 298 288 291 287 279 274 266 251 254 270
354 354 349 340 314 60 81 50 306 351 111 201 245 20 294 339 350 334 15 344 320 339 341 197 266 335 342 327 324 315 299 294 296 311 296 276 288 295 347 31 11 9 354 352 316
356 357 346 340 48 345 68 337 340 65 93 338 346 4 329 338 31 47 355 25 350 321 338 311 322 321 316 320 336 315 295 303 304 316 303 43 290 39 341 356 354 347 345 333 324
358 355 360 36 247 45 300 321 313 63 43 319 356 357 336 69 278 342 32 4 5 319 69 270 295 309 309 323 326 296 320 308 303 292 87 12 250 331 341 350 344 338 335 326 315
353 335 349 20 51 246 318 327 51 52 321 343 21 354 8 347 2 324 48 9 56 329 324 287 279 230 41 321 305 334 326 305 319 65 29 219 38 44 4 340 329 327 324 322 318
344 316 335 40 305 307 20 55 34 75 5 340 339 343 336 328 356 360 21 34 40 2 346 326 316 315 33 333 299 351 350 342 0 6 251 315 333 208 5 352 337 329 321 321 318
338 312 302 75 291 34 63 53 61 35 339 353 333 311 39 21 348 346 4 29 15 92 308 356 328 23 334 268 252 331 44 337 305 316 304 306 263 207 9 343 335 331 325 319 312
337 304 3 306 329 69 67 50 170 312 305 324 315 22 345 13 341 6 17 181 236 74 53 341 263 317 304 339 85 334 4 288 261 260 272 256 324 289 352 353 341 331 326 319 310
19 20 306 303 43 60 67 106 161 287 327 333 11 50 337 333 5 17 335 246 271 236 153 259 293 273 324 3 13 86 325 344 345 321 310 298 315 320 350 334 333 328 323 317 315
47 52 262 337 66 46 87 119 67 332 72 15 347 331 276 312 309 283 251 281 268 291 262 174 143 289 328 7 267 344 2 304 247 280 308 304 314 4 342 326 326 318 316 318 316
58 51 302 22 52 46 81 105 176 272 27 310 246 174 194 295 295 292 283 214 0 348 322 233 219 291 298 224 134 96 335 294 315 317 279 297 273 353 337 329 320 316 321 327 333
68 317 329 66 77 37 57 119 179 54 5 31 336 40 261 288 338 263 303 324 2 341 256 284 301 315 339 347 273 48 10 333 291 274 312 316 292 327 329 327 327 330 337 334 328
68 30 355 39 68 114 89 3 349 54 70 352 267 297 348 305 226 287 296 307 329 311 353 7 204 178 258 273 294 314 358 13 328 301 305 275 311 328 334 335 337 336 337 339 340
37 85 169 12 20 93 101 180 331 12 10 320 330 43 156 293 307 259 323 329 319 353 358 96 257 267 286 284 272 169 2 13 347 308 310 314 321 327 330 330 330 323 331 337 353
110 118 10 115 166 110 116 254 92 318 147 309 331 301 290 228 224 289 314 349 271 318 326 324 281 316 300 304 172 198 17 2 346 330 290 319 325 334 325 326 328 342 346 352 351
48 29 100 232 179 85 204 176 214 39 300 260 340 325 305 287 290 280 270 246 246 277 294 334 301 327 278 315 323 43 355 352 348 1 321 358 327 328 331 335 336 344 348 345 346